Previsão horária em Al-Ladikija

Hoje, 21 Janeiro, Quinta-feira

Tempo Temperatura Precipitação Vento Pressão Humidade
00:00 +4°C° 0 mm 3 m/s 767 mmHg 55%
01:00 +4°C° 0 mm 3 m/s 767 mmHg 55%
02:00 +4°C° 0 mm 3 m/s 768 mmHg 56%
03:00 +5°C° 0 mm 2 m/s 768 mmHg 57%
04:00 +5°C° 0 mm 2 m/s 768 mmHg 58%
05:00 +5°C° 0 mm 2 m/s 769 mmHg 59%
06:00 +6°C° 0 mm 2 m/s 769 mmHg 61%
07:00 +7°C° 0 mm 2 m/s 769 mmHg 62%
08:00 +7°C° 0 mm 2 m/s 769 mmHg 64%
09:00 +8°C° 0 mm 2 m/s 769 mmHg 59%
10:00 +11°C° 0 mm 1 m/s 770 mmHg 55%
11:00 +12°C° 0 mm 1 m/s 770 mmHg 51%
12:00 +12°C° 0 mm 2 m/s 770 mmHg 52%
13:00 +12°C° 0 mm 2 m/s 769 mmHg 53%
14:00 +12°C° 0 mm 2 m/s 769 mmHg 54%
15:00 +10°C° 0 mm 2 m/s 769 mmHg 59%
16:00 +9°C° 0 mm 2 m/s 769 mmHg 64%
17:00 +9°C° 0 mm 1 m/s 770 mmHg 69%
18:00 +9°C° 0 mm 1 m/s 770 mmHg 69%
19:00 +8°C° 0 mm 2 m/s 770 mmHg 70%
20:00 +7°C° 0 mm 2 m/s 770 mmHg 71%
21:00 +7°C° 0 mm 2 m/s 770 mmHg 70%
22:00 +7°C° 0 mm 2 m/s 770 mmHg 70%
23:00 +7°C° 0 mm 2 m/s 770 mmHg 70%

Amanhã, 22 Janeiro, Sexta-feira

Tempo Temperatura Precipitação Vento Pressão Humidade
00:00 +7°C° 0 mm 2 m/s 770 mmHg 70%
01:00 +6°C° 0 mm 2 m/s 770 mmHg 70%
02:00 +5°C° 0 mm 3 m/s 770 mmHg 70%
03:00 +5°C° 0 mm 3 m/s 770 mmHg 68%
04:00 +5°C° 0 mm 3 m/s 770 mmHg 66%
05:00 +4°C° 0 mm 3 m/s 769 mmHg 65%
06:00 +5°C° 0 mm 4 m/s 770 mmHg 63%
07:00 +5°C° 0 mm 4 m/s 770 mmHg 62%
08:00 +5°C° 0 mm 4 m/s 770 mmHg 60%
09:00 +7°C° 0 mm 4 m/s 770 mmHg 58%
10:00 +8°C° 0 mm 4 m/s 769 mmHg 56%
11:00 +11°C° 0 mm 4 m/s 769 mmHg 54%
12:00 +11°C° 0 mm 4 m/s 769 mmHg 54%
13:00 +12°C° 0 mm 4 m/s 768 mmHg 53%
14:00 +12°C° 0 mm 3 m/s 767 mmHg 53%
15:00 +11°C° 0 mm 4 m/s 767 mmHg 56%
16:00 +10°C° 0 mm 4 m/s 767 mmHg 59%
17:00 +7°C° 0 mm 4 m/s 767 mmHg 62%
18:00 +7°C° 0 mm 5 m/s 767 mmHg 61%
19:00 +7°C° 0 mm 5 m/s 767 mmHg 61%
20:00 +7°C° 0 mm 5 m/s 767 mmHg 60%
21:00 +6°C° 0 mm 5 m/s 767 mmHg 59%
22:00 +6°C° 0 mm 5 m/s 767 mmHg 59%
23:00 +6°C° 0 mm 5 m/s 767 mmHg 58%

Depois de amanhã, 23 Janeiro, Sábado

Tempo Temperatura Precipitação Vento Pressão Humidade
00:00 +6°C° 0 mm 5 m/s 767 mmHg 58%
01:00 +5°C° 0 mm 5 m/s 766 mmHg 58%
02:00 +5°C° 0 mm 5 m/s 766 mmHg 58%
03:00 +5°C° 0 mm 5 m/s 766 mmHg 59%
04:00 +5°C° 0 mm 5 m/s 766 mmHg 59%
05:00 +5°C° 0 mm 5 m/s 766 mmHg 60%
06:00 +5°C° 0 mm 5 m/s 766 mmHg 60%
07:00 +5°C° 0 mm 5 m/s 766 mmHg 60%
08:00 +6°C° 0 mm 5 m/s 766 mmHg 61%
09:00 +7°C° 0 mm 5 m/s 766 mmHg 58%
10:00 +8°C° 0 mm 4 m/s 766 mmHg 55%
11:00 +11°C° 0 mm 4 m/s 765 mmHg 53%
12:00 +11°C° 0 mm 4 m/s 765 mmHg 52%
13:00 +12°C° 0 mm 4 m/s 764 mmHg 50%
14:00 +13°C° 0 mm 4 m/s 764 mmHg 49%
15:00 +10°C° 0 mm 5 m/s 764 mmHg 52%
16:00 +9°C° 0 mm 5 m/s 764 mmHg 54%
17:00 +8°C° 0 mm 5 m/s 764 mmHg 57%
18:00 +8°C° 0 mm 5 m/s 764 mmHg 57%
19:00 +7°C° 0 mm 5 m/s 764 mmHg 58%
20:00 +7°C° 0 mm 5 m/s 765 mmHg 58%
21:00 +7°C° 0 mm 5 m/s 765 mmHg 59%
22:00 +6°C° 0 mm 5 m/s 765 mmHg 60%
23:00 +6°C° 0 mm 5 m/s 764 mmHg 60%

24 Janeiro, Domingo

Tempo Temperatura Precipitação Vento Pressão Humidade
00:00 +6°C° 0 mm 5 m/s 764 mmHg 61%
01:00 +5°C° 0 mm 5 m/s 764 mmHg 62%
02:00 +5°C° 0 mm 5 m/s 764 mmHg 62%
03:00 +5°C° 0 mm 5 m/s 764 mmHg 62%
04:00 +5°C° 0 mm 5 m/s 764 mmHg 62%
05:00 +5°C° 0 mm 5 m/s 764 mmHg 62%
06:00 +5°C° 0 mm 5 m/s 764 mmHg 62%
07:00 +5°C° 0 mm 5 m/s 764 mmHg 61%
08:00 +5°C° 0 mm 6 m/s 765 mmHg 60%
09:00 +7°C° 0 mm 6 m/s 765 mmHg 58%
10:00 +8°C° 0 mm 5 m/s 764 mmHg 56%
11:00 +10°C° 0 mm 5 m/s 764 mmHg 53%
12:00 +10°C° 0 mm 5 m/s 764 mmHg 53%
13:00 +12°C° 0 mm 5 m/s 763 mmHg 52%
14:00 +12°C° 0 mm 5 m/s 763 mmHg 51%
15:00 +10°C° 0 mm 5 m/s 763 mmHg 53%
16:00 +10°C° 0 mm 5 m/s 763 mmHg 55%
17:00 +9°C° 0 mm 5 m/s 763 mmHg 57%
18:00 +8°C° 0 mm 5 m/s 763 mmHg 57%
19:00 +8°C° 0 mm 5 m/s 764 mmHg 58%
20:00 +8°C° 0 mm 5 m/s 764 mmHg 58%
21:00 +7°C° 0 mm 5 m/s 764 mmHg 58%
22:00 +7°C° 0 mm 5 m/s 764 mmHg 59%
23:00 +7°C° 0 mm 4 m/s 764 mmHg 59%

25 Janeiro, Segunda-feira

Tempo Temperatura Precipitação Vento Pressão Humidade
00:00 +6°C° 0 mm 5 m/s 764 mmHg 60%
01:00 +6°C° 0 mm 5 m/s 763 mmHg 61%
02:00 +6°C° 0 mm 5 m/s 763 mmHg 61%
03:00 +6°C° 0 mm 5 m/s 763 mmHg 62%
04:00 +5°C° 0 mm 4 m/s 763 mmHg 62%
05:00 +5°C° 0 mm 4 m/s 763 mmHg 62%
06:00 +6°C° 0 mm 4 m/s 763 mmHg 62%
07:00 +6°C° 0 mm 4 m/s 764 mmHg 62%
08:00 +6°C° 0 mm 4 m/s 764 mmHg 61%
09:00 +8°C° 0 mm 4 m/s 764 mmHg 59%
10:00 +11°C° 0 mm 3 m/s 764 mmHg 56%
11:00 +13°C° 0 mm 2 m/s 764 mmHg 53%
12:00 +14°C° 0 mm 2 m/s 764 mmHg 52%
13:00 +15°C° 0 mm 2 m/s 763 mmHg 50%
14:00 +16°C° 0 mm 2 m/s 763 mmHg 49%
15:00 +14°C° 0 mm 2 m/s 763 mmHg 53%
16:00 +13°C° 0 mm 2 m/s 763 mmHg 57%
17:00 +12°C° 0 mm 2 m/s 763 mmHg 61%
18:00 +10°C° 0 mm 2 m/s 763 mmHg 60%
19:00 +10°C° 0 mm 3 m/s 764 mmHg 60%
20:00 +10°C° 0 mm 3 m/s 764 mmHg 60%
21:00 +10°C° 0 mm 3 m/s 764 mmHg 60%
22:00 +9°C° 0 mm 3 m/s 764 mmHg 59%
23:00 +8°C° 0 mm 4 m/s 764 mmHg 59%

26 Janeiro, Terça-feira

Tempo Temperatura Precipitação Vento Pressão Humidade
00:00 +9°C° 0 mm 3 m/s 764 mmHg 60%
01:00 +9°C° 0 mm 3 m/s 764 mmHg 60%
02:00 +9°C° 0 mm 3 m/s 763 mmHg 61%
03:00 +9°C° 0 mm 3 m/s 763 mmHg 61%
04:00 +8°C° 0 mm 4 m/s 763 mmHg 61%
05:00 +8°C° 0 mm 4 m/s 763 mmHg 61%
06:00 +8°C° 0 mm 4 m/s 763 mmHg 62%
07:00 +8°C° 0 mm 4 m/s 763 mmHg 62%
08:00 +9°C° 0 mm 3 m/s 763 mmHg 63%
09:00 +11°C° 0 mm 3 m/s 763 mmHg 61%
10:00 +12°C° 0 mm 3 m/s 763 mmHg 58%
11:00 +13°C° 0 mm 3 m/s 762 mmHg 56%
12:00 +13°C° 0 mm 3 m/s 762 mmHg 56%
13:00 +15°C° 0 mm 2 m/s 762 mmHg 55%
14:00 +15°C° 0 mm 2 m/s 761 mmHg 55%
15:00 +14°C° 0 mm 2 m/s 761 mmHg 57%
16:00 +13°C° 0 mm 2 m/s 761 mmHg 60%
17:00 +13°C° 0 mm 2 m/s 761 mmHg 62%
18:00 +12°C° 0 mm 2 m/s 761 mmHg 61%
19:00 +12°C° 0 mm 2 m/s 761 mmHg 60%
20:00 +12°C° 0 mm 2 m/s 761 mmHg 60%
21:00 +12°C° 0 mm 2 m/s 761 mmHg 59%
22:00 +12°C° 0 mm 2 m/s 761 mmHg 59%
23:00 +12°C° 0 mm 2 m/s 760 mmHg 59%
Mostrar mais

Necessitamos do seu Consentimento

A Meteoprog e os seus Fornecedores de Serviços podem armazenar e aceder a dados pessoais como cookies, identificadores do dispositivo ou outras tecnologias semelhantes existentes no seu dispositivo e processar estes dados para personalizar conteúdos e anúncios, assim como funcionalidades nas redes sociais e análise de tráfego.

  • Armazenar e/ou aceder a informações no seu dispositivo

    Os cookies, identificadores do dispositivo ou outras informações podem ser armazenados ou acedidos no seu dispositivo, para os fins acima indicados.

  • Anúncios e conteúdos personalizados, medição de anúncios e conteúdos, dados sobre o público-alvo e desenvolvimento de produtos

    Os anúncios e os conteúdos podem ser personalizados com base num perfil. Podem ser adicionados dados adicionais para uma maior personalização dos anúncios e dos conteúdos. A eficácia dos anúncios e dos conteúdos pode ser medida. Podem ser obtidas informações sobre o público que visualizou os anúncios e os conteúdos. Estes dados podem ser usados para desenvolver ou melhorar sistemas, softwares ou a experiência do utilizador.

Ao clicar em "Eu concordo”, permitirá o uso de cookies, identificadores do dispositivo e web beacons mencionados ou outras tecnologias semelhantes. As configurações do navegador do seu dispositivo podem ser alteradas.

Para certos fins, podem ser invocados interesses legítimos ao invés de consentimento. Pode ler mais informação sobre este assunto na nossa Política de Privacidade e Cookies.